{"data":{"norad_id":52289,"epoch":"2026-09-19T17:19:21.243360Z","epoch_age_seconds":126740,"freshness":"FRESH","line1":"1 52289U 22041AE  26262.72177365  .00001926  00000+0  73854-4 0  9999","line2":"2 52289  53.1601 295.4245 0002274  45.7570 314.3618 15.31695356243962","mean_motion":15.31695356,"eccentricity":0.0002274,"inclination_deg":53.1601,"raan_deg":295.4245,"arg_perigee_deg":45.757,"mean_anomaly_deg":314.3618,"bstar":7.3854e-5,"rev_number":24396,"period_min":94.013473002917,"perigee_km":469.19640100623,"apogee_km":472.31127655971,"semimajor_km":6848.890838783,"source":"CELESTRAK","updated_at":"2026-09-20T09:00:40.016102Z"}}